This demonstration page uses our WeatherBlox Daily Observations layout. Learn more.

Left ArrowRight Arrow

39.08367, -84.50855

Hourly Observations for July 21, 2020

Temp ( °F °C ) Dew Point ( °F °C ) Humidity (%) Winds ( mph kmh ) Pressure ( in mb ) Visibility ( mi km ) Precip ( " mm )
12:53 am 00:53 Clear 74 23.3 71 21.7 91 91 N N/A 30.01 1016 10 16 N/A
1:53 am 01:53 Clear 73 22.8 71 21.7 94 94 N N/A 30.00 1016 10 16 N/A
2:53 am 02:53 Clear 72 22.2 71 21.7 97 97 N N/A 29.99 1016 10 16 N/A
3:53 am 03:53 Clear 72 22.2 70 21.1 94 94 N N/A 29.99 1016 10 16 N/A
4:53 am 04:53 Partly Cloudy 72 22.2 70 21.1 94 94 N N/A 29.99 1016 10 16 N/A
5:53 am 05:53 Partly Cloudy 73 22.8 70 21.1 90 90 N N/A 30.00 1016 10 16 N/A
6:53 am 06:53 Sunny 72 22.2 68 20 87 87 ENE 3 6 30.03 1017 10 16 N/A
7:53 am 07:53 Sunny 74 23.3 68 20 82 82 N N/A 30.03 1017 10 16 N/A
8:53 am 08:53 Sunny 76 24.4 67 19.4 74 74 N N/A 30.05 1018 10 16 N/A
9:53 am 09:53 Sunny 79 26.1 68 20 69 69 N N/A 30.06 1018 10 16 N/A
10:53 am 10:53 Sunny 81 27.2 70 21.1 69 69 SW 3 6 30.06 1018 10 16 N/A
11:53 am 11:53 Sunny 84 28.9 71 21.7 65 65 N N/A 30.05 1018 10 16 N/A
12:53 pm 12:53 Partly Cloudy 87 30.6 71 21.7 59 59 VRB 5 7 30.04 1017 10 16 N/A
1:53 pm 13:53 Partly Cloudy 88 31.1 73 22.8 61 61 VRB 3 6 30.03 1017 10 16 N/A
2:53 pm 14:53 Mostly Sunny 89 31.7 73 22.8 59 59 S 6 9 30.01 1016 10 16 N/A
3:53 pm 15:53 Mostly Cloudy 88 31.1 71 21.7 57 57 WSW 5 7 30.00 1016 10 16 N/A
4:53 pm 16:53 Partly Cloudy 91 32.8 72 22.2 54 54 SSW 6 9 29.97 1015 10 16 N/A
5:53 pm 17:53 Mostly Sunny 91 32.8 72 22.2 54 54 SW 7 11 29.96 1015 10 16 N/A
6:53 pm 18:53 Partly Cloudy 87 30.6 73 22.8 63 63 S 9 15 29.96 1015 10 16 N/A
7:53 pm 19:53 Mostly Sunny 83 28.3 75 23.9 77 77 S 7 11 29.97 1015 10 16 N/A
8:53 pm 20:53 Mostly Sunny 82 27.8 75 23.9 79 79 S 3 6 29.98 1015 10 16 N/A
9:53 pm 21:53 Clear 79 26.1 74 23.3 85 85 S 6 9 29.99 1016 10 16 N/A
10:53 pm 22:53 Clear 77 25 74 23.3 90 90 N N/A 29.99 1016 10 16 N/A
11:53 pm 23:53 Clear 76 24.4 74 23.3 94 94 N N/A 29.99 1016 10 16 N/A

Powered by AerisWeather